Regional Weather Roundup
Issued by NWS

Home | Current Version | Previous Version | Text Only | Print | Product List | Glossary On
Versions: 1 2 3 4 5 6 7 8 9 10 11 12 13 14 15 16 17 18 19 20 21 22 23 24 25 26 27 28 29 30 31 32 33 34 35 36 37 38 39 40 41 42 43 44 45 46 47 48 49 50
075
ASUS43 KDTX 101701
RWRMI
MICHIGAN HOURLY REGIONAL WEATHER ROUNDUP
NATIONAL WEATHER SERVICE DETROIT/PONTIAC MI
1200 PM EST WED FEB 10 2016

NOTE: "FAIR" INDICATES FEW OR NO CLOUDS BELOW 12,000 FEET WITH NO
SIGNIFICANT WEATHER AND/OR OBSTRUCTION TO VISIBILITY.

MIZ047>049-052>055-059>063-066>070-074>076-081>083-101800-
SOUTHEAST LOWER MICHIGAN

CITY           SKY/WX    TMP DP  RH WIND       PRES   REMARKS
ADRIAN         CLOUDY    21   9  59 NW13      29.86S WCI   9
ALMA           LGT SNOW  19  14  81 NW10G17   29.86S VSB 1   WCI   7
ANN ARBOR      CLOUDY    20   7  57 NW14      29.84R WCI   7
BAD AXE        LGT SNOW  13   8  79 NW14G20   29.81R WCI  -2
CARO           PTSUNNY   14   5  67 NW14G21   29.83S WCI  -1
DETROIT CITY   CLOUDY    20   8  60 NW13G22   29.83S WCI   7
DETROIT        FLURRIES  21  11  65 W16G24    29.85R WCI   7
FLINT          LGT SNOW  19   7  59 NW18G28   29.84R WCI   4
GROSSE ILE     CLOUDY    23  10  58 NW10G18   29.83R WCI  12
HILLSDALE      CLOUDY    20   7  56 NW17      29.84S WCI   6
HOWELL         CLOUDY    19   8  60 NW13G21   29.83S WCI   7

CITY           SKY/WX    TMP DP  RH WIND       PRES   REMARKS
JACKSON        LGT SNOW  19   8  62 NW15G25   29.85S WCI   5
LAMBERTVILLE   CLOUDY    22  13  67 NW8       29.87S WCI  12
LANSING        LGT SNOW  17  11  77 W12G26    29.86S VSB 3/4 WCI   4
LAPEER         CLOUDY    16   8  72 NW13      29.82S WCI   2
MASON          LGT SNOW  19  13  76 W13G18    29.85S WCI   6
MONROE         CLOUDY    23   8  52 NW12G18   29.84F WCI  11
MT. CLEMENS    FLURRIES  19   9  64 NW15      29.81R WCI   5
PONTIAC        LGT SNOW  17   7  64 NW22G31   29.80S BLWGSNOWWCI   0
PORT HOPE        N/A     14   8  77 NW17G28   29.78R WCI  -3
PORT HURON     CLOUDY    16   7  67 W20G29    29.81S WCI  -1
TRI CITIES     CLOUDY    18   6  59 NW13      29.85S HAZE    WCI   5
MIDLAND        CLOUDY    17   5  59 NW8       29.84S WCI   7
TROY           CLOUDY    20  11  68 NW15G21   29.84S HAZE    WCI   7
SAGINAW HB     CLOUDY    18  12  79 NW9       29.85S WCI   6
$$
MIZ043>046-050>051-056>058-064>065-071>073-077>080-101800-
SOUTHWEST LOWER MICHIGAN

CITY           SKY/WX    TMP DP  RH WIND       PRES   REMARKS
BATTLE CREEK   LGT SNOW  19  10  68 NW16G23   29.88S WCI   4
BENTON HARBOR  CLOUDY    20  10  65 NW16G24   29.96S WCI   6
BIG RAPIDS     PTSUNNY   17   6  62 NW14      29.85R WCI   3
COLDWATER      CLOUDY    20  12  71 W13       29.88S WCI   7
FREMONT        PTSUNNY   20   5  52 NW17G24   29.90S WCI   5
HOLLAND        HVY SNOW  18  14  84 NW10G22   29.93S VSB 1/4 WCI   6
GRAND RAPIDS   PTSUNNY   20   5  52 NW20G28   29.89S WCI   4
IONIA          CLOUDY    19   6  56 W15       29.86S WCI   5
KALAMAZOO      MIX PCPN  19  10  68 NW16G24   29.90S WCI   4
LUDINGTON      LGT SNOW  15   8  73 N15G21    29.94R WCI   0
MARSHALL       CLOUDY    21   8  56 NW9G17    29.86S WCI  10
MOUNT PLEASANT CLOUDY    20   4  50 NW14G20   29.84R WCI   6
MUSKEGON       LGT SNOW  19  11  70 NW16      29.94R WCI   4
SOUTH HAVEN    LGT SNOW  21  13  71 NW13G24   29.94S WCI   8
$$
MIZ016>042-101800-
NORTHERN LOWER MICHIGAN

CITY           SKY/WX    TMP DP  RH WIND       PRES   REMARKS
ALPENA         CLOUDY     9  -1  64 NW16G24   29.82R BLWGSNOWWCI  -8
BEAVER ISLAND  CLOUDY    12   1  62 NW9G17    29.90R WCI  -1
BELLAIRE       CLOUDY    15   4  60 N13       29.88R WCI   1
CADILLAC       LGT SNOW  15   6  69 N12G20    29.80S WCI   1
CHARLEVOIX     CLOUDY    13   5  70 N13G24    29.90R HAZE    WCI  -1
FRANKFORT      LGT SNOW  16   8  73 NW16G23   29.92R WCI   0
GRAYLING       CLOUDY    12   2  65 NW12      29.81R WCI  -2
HARBOR SPRINGS PTSUNNY   11  -1  58 NW16      29.86S WCI  -6
HOUGHTON LAKE  PTSUNNY   14   2  58 NW13      29.80S WCI   0
MANISTEE       CLOUDY    16   5  62 NW14G23   29.92R WCI   1
OSCODA           N/A     11   2  66 NW18      29.82R WCI  -7
PELLSTON       CLOUDY     9   0  67 N18G28    29.87R WCI -10
ROGERS CITY    CLOUDY     8   1  72 NW15      29.84R HAZE    WCI  -9
TRAVERSE CITY  LGT SNOW  15   5  64 NW20G26   29.88R WCI  -2
$$
MIZ007>008-015-101800-
EASTERN UPPER MICHIGAN

CITY           SKY/WX    TMP DP  RH WIND       PRES   REMARKS
KINROSS        MOSUNNY    9  -2  61 N16G24    29.84S WCI  -9
MACKINAC ISLAN CLOUDY    10   1  65 N17       29.85R WCI  -7
NEWBERRY       CLOUDY     8   1  71 N15G23    29.87S HAZE    WCI  -9
S. S. MARIE    SUNNY      5  -9  52 NW10      29.85S WCI -10
$$
MIZ004>006-011>014-085-101800-
CENTRAL UPPER MICHIGAN

CITY           SKY/WX    TMP DP  RH WIND       PRES   REMARKS
MANISTIQUE     CLOUDY    12   3  67 N14G20    29.92R HAZE    WCI  -4
ESCANABA       CLOUDY    12   1  62 NW16G25   29.95S WCI  -4
MENOMINEE      SUNNY     10  -8  44 NW14G23   29.99S WCI  -5
SAWYER-GWINN   SNOW       7   3  85 N18       29.91R VSB 1/2 WCI -12
$$
MIZ001>003-009>011-084-101800-
WESTERN UPPER MICHIGAN

CITY           SKY/WX    TMP DP  RH WIND       PRES   REMARKS
IRON MOUNTAIN  SUNNY      8  -7  50 NW18G29   29.96S WCI -11
HOUGHTON       LGT SNOW   6  -2  69 N17       30.01R WCI -13
COPPER HARBOR    N/A     10   5  80 NE22G29   30.02S WCI -10
IRONWOOD       CLOUDY     7   1  78 N7        30.01S WCI  -5
$$

ABBREVIATIONS USED IN REMARKS
   TC - TEMPERATURE IN CELSIUS
  WCI - WIND CHILL INDEX
   HX - HEAT INDEX
  VSB - VISIBILITY





USA.gov is the U.S. government's official web portal to all federal, state and local government web resources and services.